Home   Weather   Ilio   Past weeks

Flag for Greece Past Weather in Ilio, Greece — Yesterday and Last 2 Weeks

Now
81 °F

Clear.


Feels Like: 80 °F
Forecast: 77 / 92 °F
Wind: 8 mph from North

Location: Elefsis Airport

Current Time: Aug 18, 2017 at 6:21:30 am

Latest Report: Aug 18, 2017 at 5:20 am


Visibility: 10 mi

Pressure: 29.86 "Hg

Humidity: 34%

Dew Point: 50 °F

Location of IlioLocation

Past Weather in Ilio — Graph

°F

Ilio Temperature Yesterday

Maximum temperature yesterday: 91 °F (at 12:50 pm)
Minimum temperature yesterday: 81 °F (at 1:50 am)
Average temperature yesterday: 86 °F

High & Low Weather Summary for the Past Weeks

 TemperatureHumidityPressure
High104 °F (Aug 7, 2:20 pm)61% (Aug 14, 5:50 am)29.98 "Hg (Aug 14, 5:50 am)
Low75 °F (Aug 14, 5:50 am)13% (Aug 14, 5:20 pm)29.65 "Hg (Aug 13, 4:20 am)
Average88 °F35%29.85 "Hg
* Reported Aug 3 5:20 am — Aug 18 5:20 am, Ilio. Weather by CustomWeather, © 2017

Note: Actual official high and low records may vary slightly from our data, if they occured in-between our weather recording intervals... More about our weather records

Advertising

Ilio Weather History for the Previous 24 Hours

Scroll right to see more
 ConditionsComfort  
Time TempWeatherWind HumidityBarometerVisibility
5:20 am
Fri, Aug 18
81 °FClear.8 mph34%29.86 "Hg10 mi
4:50 am81 °FClear.9 mph34%29.86 "Hg10 mi
4:20 am81 °FClear.10 mph34%29.86 "Hg10 mi
3:50 am81 °FClear.8 mph34%29.86 "Hg10 mi
3:20 am82 °FClear.8 mph30%29.86 "Hg10 mi
2:50 am82 °FClear.8 mph30%29.86 "Hg10 mi
2:20 am82 °FClear.8 mph30%29.86 "Hg10 mi
1:50 am82 °FClear.1 mph30%29.86 "Hg10 mi
1:20 am84 °FClear.6 mph29%29.86 "Hg10 mi
12:50 am84 °FClear.5 mph29%29.86 "Hg10 mi
12:20 am84 °FClear.2 mph29%29.86 "Hg10 mi
11:50 pm
Thu, Aug 17
84 °FClear.6 mph29%29.86 "Hg10 mi
11:20 pm84 °FClear.3 mph27%29.86 "Hg10 mi
10:50 pm84 °FClear.5 mph27%29.86 "Hg10 mi
10:20 pm84 °FClear.6 mph29%29.86 "Hg10 mi
9:50 pm86 °FClear.6 mph27%29.86 "Hg10 mi
9:20 pm86 °FClear.6 mph27%29.86 "Hg10 mi
8:50 pm88 °FClear.5 mph25%29.86 "Hg10 mi
8:20 pm88 °FPassing clouds.7 mph25%29.86 "HgN/A
7:50 pm88 °FSunny.7 mph25%29.86 "Hg10 mi
7:20 pm90 °FSunny.12 mph24%29.86 "Hg10 mi
6:50 pm90 °FSunny.12 mph22%29.86 "Hg10 mi
6:20 pm90 °FPassing clouds.12 mph21%29.86 "HgN/A
5:50 pm90 °FPassing clouds.12 mph21%29.86 "HgN/A
5:20 pm91 °FPassing clouds.12 mph21%29.86 "HgN/A
4:20 pm91 °FPassing clouds.16 mph24%29.86 "HgN/A
3:50 pm91 °FPassing clouds.17 mph24%29.86 "HgN/A
3:20 pm91 °FPassing clouds.20 mph26%29.86 "HgN/A
2:50 pm91 °FPassing clouds.17 mph26%29.86 "HgN/A
2:20 pm91 °FPassing clouds.18 mph28%29.86 "HgN/A
1:50 pm91 °FPassing clouds.16 mph28%29.86 "HgN/A
1:20 pm91 °FPassing clouds.18 mph30%29.83 "HgN/A
12:50 pm91 °FPassing clouds.20 mph30%29.86 "HgN/A
12:20 pm90 °FPassing clouds.17 mph31%29.86 "HgN/A
11:50 am90 °FPassing clouds.17 mph29%29.86 "HgN/A
11:20 am90 °FPassing clouds.18 mph33%29.86 "HgN/A
10:50 am88 °FPassing clouds.16 mph35%29.86 "HgN/A
10:20 am88 °FPassing clouds.16 mph38%29.86 "HgN/A
9:50 am86 °FPassing clouds.17 mph40%29.86 "HgN/A
9:20 am86 °FPassing clouds.16 mph40%29.86 "HgN/A
8:50 am84 °FPassing clouds.14 mph43%29.86 "HgN/A
8:20 am82 °FPassing clouds.12 mph45%29.86 "HgN/A
7:50 am81 °FPassing clouds.10 mph48%29.83 "HgN/A
7:20 am81 °FPassing clouds.10 mph48%29.83 "HgN/A
6:50 am81 °FPassing clouds.13 mph48%29.83 "HgN/A
6:20 am81 °FPassing clouds.14 mph48%29.83 "HgN/A
Weather by CustomWeather, © 2017

See weather overviewHow to use our weather pages